User: anonymous   Login
Location: Zagreb
(45.8000°N, 16.0000°E)
Time: 21:19:52
(UTC+02:00)
Language:

Tiros 1 despin weight - Orbit

View from above orbital plane
View from above orbital plane
View from above satellite
View from above satellite

Ground track
Ground track

The orbit data is extracted from the following two-line orbital elements,

1   115U 60002D   20099.41449000 +.00000012 +00000-0 +28521-4 0  9992
2   115 048.1661 251.0156 0034931 299.6963 060.0474 14.83560690181417
Epoch (UTC): 08 April 2020 09:56:51
Eccentricity: 0.0034931
inclination: 48.1661°
perigee height: 593 km
apogee height: 642 km
right ascension of ascending node: 251.0156°
argument of perigee: 299.6963°
revolutions per day: 14.83560690
mean anomaly at epoch: 60.0474°
orbit number at epoch: 18141

The dashed part of the orbit path shows where the satellite is in the earth's shadow,  

DLR